"read_dt","SO2 (ppb)","flags","PMT voltage (V)","lamp voltage (V)","lamp intensity (Hz)","internal temp (C)","react chamber temp (C)","sample flow (l/min)","pres (mmHg)","SO2 bkg (ppb)","SO2 coefficient"
2016-02-13 00:00:00,1729E-3,5C000400,-0724,0836,12159,024.8,045.3,0.262,762.6,01.16,0.508
2016-02-13 00:01:00,1741E-3,5C000400,-0724,0835,12190,024.8,045.3,0.261,762.6,01.16,0.508
2016-02-13 00:02:00,1680E-3,5C000400,-0724,0836,12111,024.8,045.3,0.261,762.6,01.16,0.508
2016-02-13 00:03:00,1608E-3,5C000400,-0724,0836,12248,024.8,045.3,0.261,762.6,01.16,0.508
2016-02-13 00:04:00,1656E-3,5C000400,-0724,0835,12171,024.8,045.3,0.262,762.6,01.16,0.508
2016-02-13 00:05:00,1731E-3,5C000400,-0724,0836,12153,024.7,045.3,0.262,762.6,01.16,0.508
2016-02-13 00:06:00,1669E-3,5C000400,-0724,0836,12201,024.8,045.3,0.262,762.6,01.16,0.508
2016-02-13 00:07:00,1621E-3,5C000400,-0724,0836,12187,024.8,045.3,0.262,762.6,01.16,0.508
2016-02-13 00:08:00,1744E-3,5C000400,-0724,0836,12299,024.7,045.3,0.261,762.6,01.16,0.508
2016-02-13 00:09:00,1662E-3,5C000400,-0724,0836,12151,024.8,045.3,0.261,762.6,01.16,0.508
2016-02-13 00:10:00,1818E-3,5C000400,-0724,0836,12059,024.8,045.3,0.261,762.6,01.16,0.508
2016-02-13 00:11:00,1740E-3,5C000400,-0724,0835,11967,024.8,045.3,0.262,762.6,01.16,0.508
2016-02-13 00:12:00,1657E-3,5C000400,-0724,0836,12114,024.8,045.3,0.262,762.6,01.16,0.508
2016-02-13 00:13:00,1762E-3,5C000400,-0724,0836,11978,024.7,045.3,0.262,762.6,01.16,0.508
2016-02-13 00:14:00,1736E-3,5C000400,-0724,0835,12157,024.8,045.3,0.262,762.6,01.16,0.508
2016-02-13 00:15:00,1740E-3,5C000400,-0724,0835,12152,024.8,045.3,0.262,762.6,01.16,0.508
2016-02-13 00:16:00,1701E-3,5C000400,-0724,0835,12037,024.8,045.3,0.262,762.5,01.16,0.508
2016-02-13 00:17:00,1789E-3,5C000400,-0724,0836,12163,024.8,045.3,0.261,762.5,01.16,0.508
2016-02-13 00:18:00,1702E-3,5C000400,-0724,0835,12074,024.8,045.3,0.261,762.5,01.16,0.508
2016-02-13 00:19:00,1739E-3,5C000400,-0724,0836,12162,024.8,045.3,0.261,762.5,01.16,0.508
2016-02-13 00:20:00,1850E-3,5C000400,-0724,0835,12194,024.7,045.3,0.261,762.5,01.16,0.508
2016-02-13 00:21:00,1692E-3,5C000400,-0724,0835,12292,024.8,045.3,0.261,762.5,01.16,0.508
2016-02-13 00:22:00,1763E-3,5C000400,-0724,0836,12187,024.7,045.3,0.261,762.5,01.16,0.508
2016-02-13 00:23:00,1750E-3,5C000400,-0724,0836,12190,024.8,045.3,0.261,762.5,01.16,0.508
2016-02-13 00:24:00,1676E-3,5C000400,-0724,0836,12135,024.7,045.3,0.261,762.5,01.16,0.508
2016-02-13 00:25:00,1679E-3,5C000400,-0724,0835,12185,024.7,045.3,0.261,762.5,01.16,0.508
2016-02-13 00:26:00,1639E-3,5C000400,-0724,0836,12142,024.7,045.3,0.261,762.5,01.16,0.508
2016-02-13 00:27:00,1699E-3,5C000400,-0724,0836,12315,024.7,045.3,0.261,762.4,01.16,0.508
2016-02-13 00:28:00,1649E-3,5C000400,-0724,0836,12079,024.7,045.3,0.262,762.4,01.16,0.508
2016-02-13 00:29:00,1745E-3,5C000400,-0724,0836,12209,024.7,045.3,0.262,762.4,01.16,0.508
2016-02-13 00:30:00,1668E-3,5C000400,-0724,0835,12247,024.8,045.3,0.262,762.4,01.16,0.508
2016-02-13 00:31:00,1792E-3,5C000400,-0724,0836,12048,024.8,045.3,0.262,762.4,01.16,0.508
2016-02-13 00:32:00,1686E-3,5C000400,-0724,0835,12061,024.7,045.3,0.262,762.4,01.16,0.508
2016-02-13 00:33:00,1889E-3,5C000400,-0724,0836,12243,024.7,045.3,0.262,762.4,01.16,0.508
2016-02-13 00:34:00,1880E-3,5C000400,-0724,0835,12211,024.7,045.3,0.262,762.4,01.16,0.508
2016-02-13 00:35:00,1778E-3,5C000400,-0724,0837,12217,024.8,045.3,0.262,762.4,01.16,0.508
2016-02-13 00:36:00,1847E-3,5C000400,-0724,0835,12145,024.7,045.3,0.262,762.4,01.16,0.508
2016-02-13 00:37:00,1836E-3,5C000400,-0724,0835,12156,024.7,045.3,0.261,762.4,01.16,0.508
2016-02-13 00:38:00,1712E-3,5C000400,-0724,0835,12061,024.7,045.3,0.261,762.4,01.16,0.508
2016-02-13 00:39:00,1760E-3,5C000400,-0724,0835,12064,024.7,045.3,0.261,762.4,01.16,0.508
2016-02-13 00:40:00,1793E-3,5C000400,-0724,0835,12184,024.7,045.3,0.262,762.4,01.16,0.508
2016-02-13 00:41:00,1713E-3,5C000400,-0724,0836,12206,024.7,045.3,0.262,762.4,01.16,0.508
2016-02-13 00:42:00,1682E-3,5C000400,-0724,0835,12200,024.8,045.3,0.262,762.3,01.16,0.508
2016-02-13 00:43:00,1789E-3,5C000400,-0724,0836,12140,024.7,045.3,0.262,762.3,01.16,0.508
2016-02-13 00:44:00,1775E-3,5C000400,-0724,0835,12198,024.7,045.3,0.262,762.3,01.16,0.508
2016-02-13 00:45:00,1733E-3,5C000400,-0724,0835,12151,024.7,045.3,0.261,762.4,01.16,0.508
2016-02-13 00:46:00,1711E-3,5C000400,-0724,0836,12113,024.7,045.3,0.262,762.3,01.16,0.508
2016-02-13 00:47:00,1713E-3,5C000400,-0724,0836,12194,024.7,045.3,0.262,762.3,01.16,0.508
2016-02-13 00:48:00,1813E-3,5C000400,-0724,0836,12183,024.7,045.3,0.262,762.3,01.16,0.508
2016-02-13 00:49:00,1750E-3,5C000400,-0724,0836,12062,024.7,045.3,0.262,762.3,01.16,0.508
2016-02-13 00:50:00,1629E-3,5C000400,-0724,0836,12168,024.7,045.3,0.261,762.3,01.16,0.508
2016-02-13 00:51:00,1703E-3,5C000400,-0724,0836,11982,024.7,045.3,0.262,762.3,01.16,0.508
2016-02-13 00:52:00,1675E-3,5C000400,-0724,0836,12076,024.7,045.3,0.261,762.3,01.16,0.508
2016-02-13 00:53:00,1838E-3,5C000400,-0724,0835,12231,024.7,045.3,0.261,762.3,01.16,0.508
2016-02-13 00:54:00,1792E-3,5C000400,-0724,0836,12106,024.7,045.3,0.262,762.4,01.16,0.508
2016-02-13 00:55:00,1809E-3,5C000400,-0724,0835,12187,024.7,045.3,0.262,762.3,01.16,0.508
2016-02-13 00:56:00,1849E-3,5C000400,-0724,0835,12221,024.7,045.3,0.262,762.3,01.16,0.508
2016-02-13 00:57:00,1703E-3,5C000400,-0724,0836,12137,024.7,045.3,0.262,762.4,01.16,0.508
2016-02-13 00:58:00,1635E-3,5C000400,-0724,0836,12112,024.7,045.3,0.262,762.3,01.16,0.508
2016-02-13 00:59:00,1567E-3,5C000400,-0724,0835,12065,024.7,045.3,0.261,762.3,01.16,0.508
2016-02-13 01:00:00,1772E-3,5C000400,-0724,0835,12180,024.7,045.3,0.261,762.3,01.16,0.508
2016-02-13 01:01:00,1698E-3,5C000400,-0724,0835,12132,024.7,045.3,0.261,762.3,01.16,0.508
2016-02-13 01:02:00,1706E-3,5C000400,-0724,0836,12012,024.7,045.3,0.262,762.3,01.16,0.508
2016-02-13 01:03:00,1762E-3,5C000400,-0724,0836,12224,024.7,045.3,0.262,762.3,01.16,0.508
2016-02-13 01:04:00,1889E-3,5C000400,-0724,0835,12179,024.7,045.3,0.262,762.3,01.16,0.508
2016-02-13 01:05:00,1657E-3,5C000400,-0724,0835,12242,024.7,045.3,0.262,762.3,01.16,0.508
2016-02-13 01:06:00,1623E-3,5C000400,-0724,0835,12080,024.7,045.3,0.262,762.3,01.16,0.508
2016-02-13 01:07:00,1689E-3,5C000400,-0724,0836,12115,024.7,045.3,0.262,762.3,01.16,0.508
2016-02-13 01:08:00,1733E-3,5C000400,-0724,0835,12137,024.7,045.3,0.262,762.3,01.16,0.508
2016-02-13 01:09:00,1719E-3,5C000400,-0724,0835,12238,024.7,045.3,0.262,762.3,01.16,0.508
2016-02-13 01:10:00,1539E-3,5C000400,-0724,0836,12196,024.7,045.3,0.262,762.3,01.16,0.508
2016-02-13 01:11:00,1699E-3,5C000400,-0724,0835,12197,024.7,045.3,0.262,762.3,01.16,0.508
2016-02-13 01:12:00,1677E-3,5C000400,-0724,0835,12026,024.7,045.4,0.262,762.3,01.16,0.508
2016-02-13 01:13:00,1755E-3,5C000400,-0724,0835,12283,024.7,045.3,0.262,762.3,01.16,0.508
2016-02-13 01:14:00,1755E-3,5C000400,-0724,0836,12123,024.7,045.3,0.261,762.3,01.16,0.508
2016-02-13 01:15:00,1851E-3,5C000400,-0724,0835,12144,024.7,045.3,0.261,762.2,01.16,0.508
2016-02-13 01:16:00,1807E-3,5C000400,-0724,0836,12205,024.7,045.3,0.261,762.2,01.16,0.508
2016-02-13 01:17:00,1899E-3,5C000400,-0724,0836,12019,024.7,045.3,0.261,762.2,01.16,0.508
2016-02-13 01:18:00,1632E-3,5C000400,-0724,0835,12229,024.7,045.3,0.261,762.2,01.16,0.508
2016-02-13 01:19:00,1696E-3,5C000400,-0724,0835,12031,024.7,045.3,0.261,762.2,01.16,0.508
2016-02-13 01:20:00,1732E-3,5C000400,-0724,0835,12147,024.8,045.3,0.261,762.2,01.16,0.508
2016-02-13 01:21:00,1752E-3,5C000400,-0724,0835,12165,024.8,045.3,0.261,762.3,01.16,0.508
2016-02-13 01:22:00,1779E-3,5C000400,-0724,0836,12168,024.7,045.3,0.261,762.3,01.16,0.508
2016-02-13 01:23:00,1842E-3,5C000400,-0724,0836,12227,024.8,045.3,0.261,762.3,01.16,0.508
2016-02-13 01:24:00,1736E-3,5C000400,-0724,0836,12056,024.8,045.4,0.262,762.3,01.16,0.508
2016-02-13 01:25:00,1667E-3,5C000400,-0724,0836,12094,024.8,045.3,0.262,762.3,01.16,0.508
2016-02-13 01:26:00,1651E-3,5C000400,-0724,0835,12171,024.7,045.3,0.262,762.3,01.16,0.508
2016-02-13 01:27:00,1820E-3,5C000400,-0724,0836,12172,024.8,045.3,0.262,762.3,01.16,0.508
2016-02-13 01:28:00,1747E-3,5C000400,-0724,0836,12193,024.8,045.3,0.262,762.3,01.16,0.508
2016-02-13 01:29:00,1731E-3,5C000400,-0724,0836,12202,024.8,045.3,0.262,762.3,01.16,0.508
2016-02-13 01:30:00,1751E-3,5C000400,-0724,0836,12217,024.8,045.3,0.262,762.3,01.16,0.508
2016-02-13 01:31:00,1776E-3,5C000400,-0724,0834,12057,024.8,045.3,0.262,762.3,01.16,0.508
2016-02-13 01:32:00,1780E-3,5C000400,-0724,0836,12144,024.8,045.3,0.261,762.3,01.16,0.508
2016-02-13 01:33:00,1722E-3,5C000400,-0724,0836,12060,024.8,045.3,0.261,762.3,01.16,0.508
2016-02-13 01:34:00,1872E-3,5C000400,-0724,0835,12176,024.8,045.3,0.262,762.3,01.16,0.508
2016-02-13 01:35:00,1857E-3,5C000400,-0724,0835,12255,024.8,045.3,0.262,762.3,01.16,0.508
2016-02-13 01:36:00,1631E-3,5C000400,-0724,0836,11901,024.8,045.3,0.262,762.3,01.16,0.508
2016-02-13 01:37:00,1703E-3,5C000400,-0724,0835,12201,024.8,045.3,0.262,762.3,01.16,0.508
2016-02-13 01:38:00,1729E-3,5C000400,-0724,0835,12099,024.8,045.3,0.262,762.3,01.16,0.508
2016-02-13 01:39:00,1665E-3,5C000400,-0724,0836,12200,024.8,045.3,0.261,762.3,01.16,0.508
2016-02-13 01:40:00,1709E-3,5C000400,-0724,0835,12259,024.8,045.3,0.261,762.2,01.16,0.508
2016-02-13 01:41:00,1720E-3,5C000400,-0724,0835,12188,024.8,045.3,0.261,762.2,01.16,0.508
2016-02-13 01:42:00,1721E-3,5C000400,-0724,0836,12216,024.8,045.3,0.262,762.2,01.16,0.508
2016-02-13 01:43:00,1674E-3,5C000400,-0724,0836,12127,024.8,045.3,0.262,762.2,01.16,0.508
2016-02-13 01:44:00,1692E-3,5C000400,-0724,0836,12027,024.8,045.3,0.262,762.2,01.16,0.508
2016-02-13 01:45:00,1750E-3,5C000400,-0724,0836,12087,024.8,045.3,0.262,762.2,01.16,0.508
2016-02-13 01:46:00,1762E-3,5C000400,-0724,0835,12067,024.8,045.3,0.262,762.2,01.16,0.508
2016-02-13 01:47:00,1815E-3,5C000400,-0724,0836,12169,024.9,045.3,0.261,762.2,01.16,0.508
2016-02-13 01:48:00,1833E-3,5C000400,-0724,0835,12040,024.9,045.3,0.261,762.2,01.16,0.508
2016-02-13 01:49:00,1870E-3,5C000400,-0724,0835,12081,024.9,045.4,0.261,762.2,01.16,0.508
2016-02-13 01:50:00,1714E-3,5C000400,-0724,0836,12309,024.8,045.3,0.261,762.2,01.16,0.508
2016-02-13 01:51:00,1686E-3,5C000400,-0724,0835,11961,024.8,045.3,0.261,762.1,01.16,0.508
2016-02-13 01:52:00,1732E-3,5C000400,-0724,0835,12185,024.9,045.3,0.261,762.2,01.16,0.508
2016-02-13 01:53:00,1800E-3,5C000400,-0724,0835,12028,024.9,045.3,0.261,762.1,01.16,0.508
2016-02-13 01:54:00,1743E-3,5C000400,-0724,0835,12123,024.9,045.3,0.261,762.2,01.16,0.508
2016-02-13 01:55:00,1754E-3,5C000400,-0724,0835,12163,024.9,045.3,0.261,762.2,01.16,0.508
2016-02-13 01:56:00,1625E-3,5C000400,-0724,0836,12238,024.9,045.3,0.261,762.1,01.16,0.508
2016-02-13 01:57:00,1687E-3,5C000400,-0724,0835,12269,024.9,045.3,0.261,762.2,01.16,0.508
2016-02-13 01:58:00,1863E-3,5C000400,-0724,0835,12110,024.9,045.3,0.262,762.2,01.16,0.508
2016-02-13 01:59:00,1731E-3,5C000400,-0724,0835,12157,024.9,045.3,0.262,762.2,01.16,0.508
2016-02-13 02:00:00,1685E-3,5C000400,-0724,0836,12175,024.9,045.3,0.262,762.2,01.16,0.508
2016-02-13 02:01:00,1709E-3,5C000400,-0724,0835,12184,024.9,045.3,0.262,762.2,01.16,0.508
2016-02-13 02:02:00,1776E-3,5C000400,-0724,0835,12031,024.9,045.4,0.262,762.2,01.16,0.508
2016-02-13 02:03:00,1835E-3,5C000400,-0724,0836,12055,024.9,045.3,0.261,762.2,01.16,0.508
2016-02-13 02:04:00,1715E-3,5C000400,-0724,0835,12021,024.9,045.3,0.261,762.2,01.16,0.508
2016-02-13 02:05:00,1672E-3,5C000400,-0724,0836,12161,024.9,045.3,0.261,762.2,01.16,0.508
2016-02-13 02:06:00,1820E-3,5C000400,-0724,0835,12127,024.9,045.3,0.261,762.1,01.16,0.508
2016-02-13 02:07:00,1771E-3,5C000400,-0724,0836,12130,024.9,045.3,0.261,762.2,01.16,0.508
2016-02-13 02:08:00,1854E-3,5C000400,-0724,0836,12151,024.9,045.3,0.262,762.2,01.16,0.508
2016-02-13 02:09:00,1831E-3,5C000400,-0724,0836,12201,024.9,045.3,0.262,762.2,01.16,0.508
2016-02-13 02:10:00,1722E-3,5C000400,-0724,0836,12097,024.9,045.3,0.262,762.2,01.16,0.508
2016-02-13 02:11:00,1852E-3,5C000400,-0724,0836,12087,024.9,045.3,0.261,762.2,01.16,0.508
2016-02-13 02:12:00,1700E-3,5C000400,-0724,0835,12133,024.9,045.3,0.261,762.1,01.16,0.508
2016-02-13 02:13:00,1692E-3,5C000400,-0724,0835,12160,024.9,045.4,0.261,762.1,01.16,0.508
2016-02-13 02:14:00,1748E-3,5C000400,-0724,0836,12056,024.9,045.3,0.261,762.1,01.16,0.508
2016-02-13 02:15:00,1786E-3,5C000400,-0724,0835,12233,024.9,045.3,0.261,762.1,01.16,0.508
2016-02-13 02:16:00,1584E-3,5C000400,-0724,0835,12223,024.9,045.3,0.261,762.1,01.16,0.508
2016-02-13 02:17:00,1770E-3,5C000400,-0724,0836,12099,024.9,045.3,0.261,762.1,01.16,0.508
2016-02-13 02:18:00,1777E-3,5C000400,-0724,0835,12177,024.9,045.4,0.262,762.1,01.16,0.508
2016-02-13 02:19:00,1773E-3,5C000400,-0724,0835,12092,025.0,045.3,0.261,762.1,01.16,0.508
2016-02-13 02:20:00,1693E-3,5C000400,-0724,0836,12104,025.0,045.3,0.261,762.1,01.16,0.508
2016-02-13 02:21:00,1701E-3,5C000400,-0724,0835,12133,025.0,045.3,0.261,762.1,01.16,0.508
2016-02-13 02:22:00,1848E-3,5C000400,-0724,0835,12183,024.9,045.3,0.261,762.1,01.16,0.508
2016-02-13 02:23:00,1770E-3,5C000400,-0724,0835,12048,024.9,045.3,0.261,762.0,01.16,0.508
2016-02-13 02:24:00,1821E-3,5C000400,-0724,0836,12065,025.0,045.3,0.261,762.1,01.16,0.508
2016-02-13 02:25:00,1619E-3,5C000400,-0724,0834,12035,025.0,045.3,0.261,762.1,01.16,0.508
2016-02-13 02:26:00,1707E-3,5C000400,-0724,0835,11941,024.9,045.3,0.262,762.1,01.16,0.508
2016-02-13 02:27:00,1923E-3,5C000400,-0724,0836,12246,024.9,045.3,0.261,762.1,01.16,0.508
2016-02-13 02:28:00,1854E-3,5C000400,-0724,0836,12134,025.0,045.3,0.261,762.1,01.16,0.508
2016-02-13 02:29:00,1697E-3,5C000400,-0724,0835,12290,025.0,045.3,0.261,762.1,01.16,0.508
2016-02-13 02:30:00,1812E-3,5C000400,-0724,0835,12040,025.0,045.3,0.261,762.1,01.16,0.508
2016-02-13 02:31:00,1653E-3,5C000400,-0724,0836,12301,025.0,045.3,0.261,762.1,01.16,0.508
2016-02-13 02:32:00,1752E-3,5C000400,-0724,0835,12140,025.0,045.3,0.261,762.1,01.16,0.508
2016-02-13 02:33:00,1852E-3,5C000400,-0724,0835,12201,025.0,045.3,0.261,762.1,01.16,0.508
2016-02-13 02:34:00,1657E-3,5C000400,-0724,0836,12060,025.0,045.3,0.261,762.0,01.16,0.508
2016-02-13 02:35:00,1753E-3,5C000400,-0724,0835,11957,025.0,045.3,0.261,762.0,01.16,0.508
2016-02-13 02:36:00,1653E-3,5C000400,-0724,0835,12110,025.0,045.3,0.261,762.0,01.16,0.508
2016-02-13 02:37:00,1812E-3,5C000400,-0724,0836,12213,025.0,045.3,0.261,762.0,01.16,0.508
2016-02-13 02:38:00,1806E-3,5C000400,-0724,0835,12268,025.0,045.3,0.261,762.0,01.16,0.508
2016-02-13 02:39:00,1859E-3,5C000400,-0724,0834,12045,025.0,045.3,0.261,762.0,01.16,0.508
2016-02-13 02:40:00,1781E-3,5C000400,-0724,0836,12204,025.0,045.3,0.261,762.0,01.16,0.508
2016-02-13 02:41:00,1728E-3,5C000400,-0724,0835,12228,025.0,045.3,0.261,762.0,01.16,0.508
2016-02-13 02:42:00,1879E-3,5C000400,-0724,0835,12080,025.0,045.4,0.261,761.9,01.16,0.508
2016-02-13 02:43:00,1723E-3,5C000400,-0724,0836,12113,025.0,045.3,0.261,762.0,01.16,0.508
2016-02-13 02:44:00,1790E-3,5C000400,-0724,0836,12139,025.0,045.3,0.261,762.0,01.16,0.508
2016-02-13 02:45:00,1821E-3,5C000400,-0724,0836,12217,025.0,045.3,0.261,762.0,01.16,0.508
2016-02-13 02:46:00,1665E-3,5C000400,-0724,0835,11989,025.0,045.3,0.261,762.0,01.16,0.508
2016-02-13 02:47:00,1712E-3,5C000400,-0724,0835,12210,025.0,045.3,0.261,762.0,01.16,0.508
2016-02-13 02:48:00,1772E-3,5C000400,-0724,0835,12067,025.0,045.3,0.261,762.0,01.16,0.508
2016-02-13 02:49:00,1668E-3,5C000400,-0724,0835,12179,025.0,045.3,0.261,762.0,01.16,0.508
2016-02-13 02:50:00,1694E-3,5C000400,-0724,0834,12148,025.0,045.3,0.261,762.0,01.16,0.508
2016-02-13 02:51:00,1874E-3,5C000400,-0724,0834,12177,025.0,045.3,0.261,762.0,01.16,0.508
2016-02-13 02:52:00,1752E-3,5C000400,-0724,0835,12043,025.0,045.3,0.261,762.0,01.16,0.508
2016-02-13 02:53:00,1757E-3,5C000400,-0724,0836,12317,025.1,045.3,0.261,762.0,01.16,0.508
2016-02-13 02:54:00,1756E-3,5C000400,-0724,0835,12084,025.0,045.3,0.261,762.0,01.16,0.508
2016-02-13 02:55:00,1661E-3,5C000400,-0724,0835,12148,025.0,045.3,0.261,762.0,01.16,0.508
2016-02-13 02:56:00,1611E-3,5C000400,-0724,0836,12182,025.1,045.4,0.261,762.0,01.16,0.508
2016-02-13 02:57:00,1723E-3,5C000400,-0724,0835,12016,025.1,045.3,0.261,762.0,01.16,0.508
2016-02-13 02:58:00,1667E-3,5C000400,-0724,0836,12055,025.1,045.3,0.261,762.0,01.16,0.508
2016-02-13 02:59:00,1922E-3,5C000400,-0724,0836,12105,025.1,045.3,0.261,762.0,01.16,0.508
2016-02-13 03:00:00,1847E-3,5C000400,-0724,0835,12138,025.1,045.3,0.261,762.0,01.16,0.508
2016-02-13 03:01:00,1756E-3,5C000400,-0724,0835,12166,025.1,045.4,0.261,762.0,01.16,0.508
2016-02-13 03:02:00,1745E-3,5C000400,-0724,0835,12162,025.1,045.3,0.261,762.0,01.16,0.508
2016-02-13 03:03:00,1676E-3,5C000400,-0724,0836,12025,025.1,045.3,0.261,762.0,01.16,0.508
2016-02-13 03:04:00,1707E-3,5C000400,-0724,0836,12266,025.1,045.3,0.261,762.0,01.16,0.508
2016-02-13 03:05:00,1682E-3,5C000400,-0724,0836,12148,025.1,045.3,0.261,762.0,01.16,0.508
2016-02-13 03:06:00,1643E-3,5C000400,-0724,0835,12229,025.1,045.3,0.261,762.0,01.16,0.508
2016-02-13 03:07:00,1818E-3,5C000400,-0724,0835,12120,025.1,045.3,0.261,762.0,01.16,0.508
2016-02-13 03:08:00,1873E-3,5C000400,-0724,0836,12255,025.1,045.4,0.261,762.0,01.16,0.508
2016-02-13 03:09:00,1716E-3,5C000400,-0724,0836,12169,025.1,045.4,0.261,762.0,01.16,0.508
2016-02-13 03:10:00,1717E-3,5C000400,-0724,0836,12086,025.1,045.3,0.261,762.0,01.16,0.508
2016-02-13 03:11:00,1758E-3,5C000400,-0724,0835,12064,025.1,045.3,0.261,762.0,01.16,0.508
2016-02-13 03:12:00,1719E-3,5C000400,-0724,0836,12145,025.1,045.3,0.261,762.0,01.16,0.508
2016-02-13 03:13:00,1791E-3,5C000400,-0724,0836,12211,025.1,045.3,0.261,762.0,01.16,0.508
2016-02-13 03:14:00,1836E-3,5C000400,-0724,0836,11991,025.1,045.3,0.261,762.0,01.16,0.508
2016-02-13 03:15:00,1682E-3,5C000400,-0724,0836,12182,025.1,045.3,0.261,762.0,01.16,0.508
2016-02-13 03:16:00,1816E-3,5C000400,-0724,0836,12277,025.1,045.3,0.261,762.0,01.16,0.508
2016-02-13 03:17:00,1922E-3,5C000400,-0724,0836,12162,025.1,045.3,0.261,762.0,01.16,0.508
2016-02-13 03:18:00,1873E-3,5C000400,-0724,0836,12018,025.1,045.3,0.261,762.0,01.16,0.508
2016-02-13 03:19:00,1726E-3,5C000400,-0724,0835,12209,025.1,045.3,0.261,762.0,01.16,0.508
2016-02-13 03:20:00,1650E-3,5C000400,-0724,0835,12127,025.1,045.3,0.261,761.9,01.16,0.508
2016-02-13 03:21:00,1584E-3,5C000400,-0724,0836,12114,025.1,045.3,0.261,761.9,01.16,0.508
2016-02-13 03:22:00,1872E-3,5C000400,-0724,0835,12030,025.1,045.3,0.261,762.0,01.16,0.508
2016-02-13 03:23:00,1707E-3,5C000400,-0724,0835,12086,025.1,045.3,0.261,762.0,01.16,0.508
2016-02-13 03:24:00,1614E-3,5C000400,-0724,0836,12228,025.2,045.3,0.261,762.0,01.16,0.508
2016-02-13 03:25:00,1713E-3,5C000400,-0724,0836,12216,025.1,045.3,0.261,762.0,01.16,0.508
2016-02-13 03:26:00,1905E-3,5C000400,-0724,0835,12068,025.2,045.3,0.261,762.0,01.16,0.508
2016-02-13 03:27:00,1773E-3,5C000400,-0724,0835,12091,025.1,045.3,0.261,762.0,01.16,0.508
2016-02-13 03:28:00,1839E-3,5C000400,-0724,0835,12175,025.2,045.3,0.261,762.0,01.16,0.508
2016-02-13 03:29:00,1915E-3,5C000400,-0724,0835,12103,025.2,045.3,0.261,762.0,01.16,0.508
2016-02-13 03:30:00,1682E-3,5C000400,-0724,0836,12076,025.2,045.3,0.260,762.0,01.16,0.508
2016-02-13 03:31:00,1691E-3,5C000400,-0724,0835,12126,025.2,045.3,0.260,762.0,01.16,0.508
2016-02-13 03:32:00,1798E-3,5C000400,-0724,0835,12123,025.2,045.3,0.261,762.0,01.16,0.508
2016-02-13 03:33:00,1717E-3,5C000400,-0724,0836,12186,025.2,045.3,0.261,762.0,01.16,0.508
2016-02-13 03:34:00,1732E-3,5C000400,-0724,0835,12120,025.2,045.3,0.261,762.0,01.16,0.508
2016-02-13 03:35:00,1821E-3,5C000400,-0724,0835,12143,025.2,045.3,0.261,762.0,01.16,0.508
2016-02-13 03:36:00,1840E-3,5C000400,-0724,0836,12220,025.2,045.3,0.261,762.0,01.16,0.508
2016-02-13 03:37:00,1696E-3,5C000400,-0724,0835,12105,025.2,045.3,0.261,762.0,01.16,0.508
2016-02-13 03:38:00,1714E-3,5C000400,-0724,0835,12217,025.2,045.3,0.261,762.0,01.16,0.508
2016-02-13 03:39:00,1899E-3,5C000400,-0724,0834,12103,025.2,045.4,0.261,762.0,01.16,0.508
2016-02-13 03:40:00,1788E-3,5C000400,-0724,0835,12156,025.2,045.4,0.261,762.0,01.16,0.508
2016-02-13 03:41:00,1788E-3,5C000400,-0724,0836,12166,025.2,045.3,0.261,761.9,01.16,0.508
2016-02-13 03:42:00,1776E-3,5C000400,-0724,0835,12169,025.2,045.3,0.261,761.9,01.16,0.508
2016-02-13 03:43:00,1662E-3,5C000400,-0724,0835,12237,025.2,045.3,0.261,761.8,01.16,0.508
2016-02-13 03:44:00,1681E-3,5C000400,-0724,0836,12157,025.2,045.3,0.261,761.8,01.16,0.508
2016-02-13 03:45:00,1776E-3,5C000400,-0724,0835,12211,025.2,045.3,0.261,761.8,01.16,0.508
2016-02-13 03:46:00,1823E-3,5C000400,-0724,0835,12172,025.3,045.3,0.261,761.9,01.16,0.508
2016-02-13 03:47:00,1690E-3,5C000400,-0724,0835,12095,025.3,045.3,0.261,761.9,01.16,0.508
2016-02-13 03:48:00,1754E-3,5C000400,-0724,0835,12170,025.2,045.3,0.261,761.9,01.16,0.508
2016-02-13 03:49:00,1815E-3,5C000400,-0724,0835,12130,025.3,045.3,0.261,761.9,01.16,0.508
2016-02-13 03:50:00,1743E-3,5C000400,-0724,0835,12243,025.2,045.3,0.261,761.9,01.16,0.508
2016-02-13 03:51:00,1694E-3,5C000400,-0724,0834,12080,025.2,045.4,0.261,761.9,01.16,0.508
2016-02-13 03:52:00,1767E-3,5C000400,-0724,0836,12163,025.3,045.3,0.261,761.9,01.16,0.508
2016-02-13 03:53:00,1716E-3,5C000400,-0724,0836,12104,025.3,045.3,0.260,761.9,01.16,0.508
2016-02-13 03:54:00,1807E-3,5C000400,-0724,0834,12170,025.3,045.4,0.260,761.9,01.16,0.508
2016-02-13 03:55:00,1772E-3,5C000400,-0724,0836,12066,025.3,045.3,0.260,761.9,01.16,0.508
2016-02-13 03:56:00,1790E-3,5C000400,-0724,0835,12115,025.3,045.3,0.260,761.9,01.16,0.508
2016-02-13 03:57:00,1680E-3,5C000400,-0724,0836,12070,025.3,045.3,0.261,761.9,01.16,0.508
2016-02-13 03:58:00,1770E-3,5C000400,-0724,0836,12172,025.3,045.3,0.261,761.8,01.16,0.508
2016-02-13 03:59:00,1802E-3,5C000400,-0724,0835,12095,025.3,045.4,0.261,761.8,01.16,0.508
2016-02-13 04:00:00,1750E-3,5C000400,-0724,0835,12172,025.3,045.3,0.261,761.8,01.16,0.508
2016-02-13 04:01:00,1703E-3,5C000400,-0724,0835,12117,025.3,045.4,0.261,761.8,01.16,0.508
2016-02-13 04:02:00,1656E-3,5C000400,-0724,0835,12153,025.3,045.4,0.261,761.8,01.16,0.508
2016-02-13 04:03:00,1883E-3,5C000400,-0724,0835,12138,025.3,045.3,0.261,761.8,01.16,0.508
2016-02-13 04:04:00,1817E-3,5C000400,-0724,0835,12231,025.3,045.3,0.261,761.8,01.16,0.508
2016-02-13 04:05:00,1624E-3,5C000400,-0724,0836,12074,025.3,045.3,0.261,761.8,01.16,0.508
2016-02-13 04:06:00,1684E-3,5C000400,-0724,0835,12200,025.3,045.3,0.260,761.8,01.16,0.508
2016-02-13 04:07:00,1548E-3,5C000400,-0724,0835,12242,025.3,045.3,0.261,761.8,01.16,0.508
2016-02-13 04:08:00,1711E-3,5C000400,-0724,0835,12249,025.3,045.3,0.261,761.8,01.16,0.508
2016-02-13 04:09:00,1744E-3,5C000400,-0724,0835,11997,025.3,045.3,0.261,761.8,01.16,0.508
2016-02-13 04:10:00,1569E-3,5C000400,-0724,0835,12059,025.3,045.4,0.261,761.8,01.16,0.508
2016-02-13 04:11:00,1688E-3,5C000400,-0724,0834,12091,025.3,045.3,0.261,761.9,01.16,0.508
2016-02-13 04:12:00,1758E-3,5C000400,-0724,0835,12049,025.4,045.3,0.261,761.9,01.16,0.508
2016-02-13 04:13:00,1824E-3,5C000400,-0724,0834,12089,025.4,045.3,0.261,761.9,01.16,0.508
2016-02-13 04:14:00,1689E-3,5C000400,-0724,0836,12077,025.4,045.4,0.260,761.9,01.16,0.508
2016-02-13 04:15:00,1647E-3,5C000400,-0724,0835,12216,025.4,045.4,0.260,761.9,01.16,0.508
2016-02-13 04:16:00,1665E-3,5C000400,-0724,0835,12175,025.4,045.4,0.260,761.9,01.16,0.508
2016-02-13 04:17:00,1617E-3,5C000400,-0724,0835,12141,025.4,045.4,0.261,761.8,01.16,0.508
2016-02-13 04:18:00,1570E-3,5C000400,-0724,0835,12198,025.4,045.3,0.261,761.8,01.16,0.508
2016-02-13 04:19:00,1733E-3,5C000400,-0724,0835,12075,025.4,045.3,0.261,761.8,01.16,0.508
2016-02-13 04:20:00,1885E-3,5C000400,-0724,0835,12085,025.4,045.3,0.261,761.9,01.16,0.508